Tracking 20041 objects as of 22-Nov-2019
Live streaming from Space Station
objects crossing your sky now

GOES 2

Track GOES 2 now!
GOES 2 is classified as:


NORAD ID: 10061
Int'l Code: 1977-048A
Perigee: 35,968.0 km
Apogee: 36,111.4 km
Inclination: 11.8 °
Period: 1,448.7 minutes
Semi major axis: 42410 km
RCS: 2.5118 m2 (large)
Launch date: June 16, 1977
Source: United States (US)
Launch site: AIR FORCE EASTERN TEST RANGE (AFETR)
aabbcc
Your satellite tracking list
Your tracking list is empty




NASA's NSSDC Master Catalog

Two Line Element Set (TLE):
1 10061U 77048A   19325.79544275 -.00000332 +00000-0 +00000-0 0  9996
2 10061 011.8194 317.4772 0016903 348.7716 179.1996 00.99400795022425
Source of the keplerian elements: AFSPC